Regional Weather Roundup
Issued by NWS

Home | Current Version | Previous Version | Text Only | Print | Product List | Glossary On
Versions: 1 2 3 4 5 6 7 8 9 10 11 12 13 14 15 16 17 18 19 20 21 22 23 24 25 26 27 28 29 30 31 32 33 34 35 36 37 38 39 40 41 42 43 44 45 46 47 48 49 50
000
ASUS45 KSLC 041410
RWRUT

UTAH REGIONAL WEATHER ROUNDUP
NATIONAL WEATHER SERVICE SALT LAKE CITY UT
800 AM MDT MON MAY 04 2015

UTZ001>011-023>025-041500-

NORTHERN UTAH

CITY           SKY/WX    TMP DP  RH WIND       PRES   REMARKS
BRIGHAM CITY   MOSUNNY   54  43  67 NW5       29.97S
DUGWAY         MOSUNNY   55  41  58 SE2       29.96
HILL AFB       MOSUNNY   58  43  57 E7        29.98R
LOGAN          SUNNY     47  43  86 W3        29.99R
OGDEN          SUNNY     61  41  47 VRB3      29.96R
PROVO AIRPORT  MOSUNNY   55  45  67 VRB3      29.98R
SALT LAKE CITY MOSUNNY   61  44  53 SE9       29.96R
VERNAL         MOSUNNY   55  39  54 NE3       30.04R
WENDOVER       PTSUNNY   61  36  39 CALM      29.94R
HEBER CITY     MOSUNNY   50  43  76 CALM      30.03S
WEST JORDAN    MOSUNNY   55  46  71 S5        29.98R

$$

UTZ012>022-026-027-041500-

SOUTHERN/CENTRAL UTAH

CITY           SKY/WX    TMP DP  RH WIND       PRES   REMARKS
BLANDING       CLOUDY    55  39  54 E3        30.12R
BRYCE CANYON   CLOUDY    44  37  76 W5        30.09S
CEDAR CITY     PTSUNNY   51  42  71 SW8       30.03R
DELTA          PTSUNNY   56  42  58 N5        29.97R
HANKSVILLE     CLOUDY    54  50  87 N7        30.03S
MILFORD        CLOUDY    56  39  53 S10       29.98R
MOAB/CYNLANDS  CLOUDY    59  42  53 VRB3      30.00R
PRICE          MOSUNNY   54  38  54 CALM      30.04R
ST GEORGE      CLOUDY    64  46  52 NE8       29.94R
KANAB          PTSUNNY   52  43  71 E7        30.04S

$$

REGIONAL REPORTS     COLORADO/ARIZONA

CITY           SKY/WX    TMP DP  RH WIND       PRES   REMARKS
CRAIG, CO      PTSUNNY   48  42  80 CALM      30.09R
GRAND JUNCTION MOSUNNY   59  42  53 E13       30.02R
RIFLE          PTSUNNY   49  44  83 SE3       30.07R
MONTROSE       MOSUNNY   51  38  60 SE7       30.08S
CORTEZ         PTSUNNY   40  35  83 NW3       30.06R
PAGE, AZ       CLOUDY    60  41  49 N6        29.97R
GRAND CANYON   CLOUDY    39  36  89 CALM      30.07R
KINGMAN        PTSUNNY   67  39  35 SE15      29.90R
FLAGSTAFF      CLOUDY    45  40  82 S3        30.08R

$$

REGIONAL REPORTS    NEVADA/IDAHO/WYOMING

CITY           SKY/WX    TMP DP  RH WIND       PRES   REMARKS
LAS VEGAS, NV  MOSUNNY   72  30  21 SW3       29.78R
ELY            CLOUDY    50  36  58 S14       30.01R
ELKO           SUNNY     42  33  70 CALM      29.97R
POCATELLO, ID  MOSUNNY   47  38  71 CALM      29.98R
BURLEY         SUNNY     49  41  74 E3        29.94R
EVANSTON, WY   MOSUNNY   44  38  79 E8        30.09R
ROCK SPRINGS   SUNNY     45  38  76 E7        30.10R
KEMMERER       SUNNY     41  36  81 N5        30.12R

$$



USA.gov is the U.S. government's official web portal to all federal, state and local government web resources and services.